Location: Lombard
(41.8800°N, 88.0080°W)
Time: 05:24:37
(UTC-05:00)

Vanguard 2 Rocket - Pass Details

Date: 27 February 2024
Orbit: 555 x 3307 km, 32.9° (Epoch: 12 April)

Event Time Altitude Azimuth Distance (km) Brightness Sun altitude
Rises 11:56:01 0° 204° (SSW) 3,460 10.6 39.7°
Reaches altitude 10° 11:58:49 10° 187° (S) 2,822 10.6 39.8°
Maximum altitude 12:03:54 21° 140° (SE) 2,640 10.2 39.8°
Drops below altitude 10° 12:11:07 10° 97° (E) 4,218 10.5 39.8°
Sets 12:16:35 0° 84° (E) 5,781 10.9 39.7°
